AAL200 KBRO-KSAF

Flight info

Callsign AAL200
Flight time 2h 7m
Altitude 32000
Route CRP MILET JCT SJT YALUT KEBYO ACH RENCO
Aircraft B738/M-SDE2E3FGHIRWXY/LB1

Departure

Time 2026-04-29 11:40
Airport Brownsville South Padre Island International Airport (KBRO)

Arrival

Time 2026-04-29 13:47
Airport Santa Fe Municipal Airport (KSAF)
Time Latitude Longitude Altitude Speed Heading
2026-04-29 11:32 25.90641 -97.43107 22 ft 0 kts 272°
2026-04-29 11:35 25.90641 -97.43104 22 ft 2 kts 272°
2026-04-29 11:35 25.90637 -97.43089 22 ft 2 kts 299°
2026-04-29 11:35 25.90629 -97.43076 22 ft 2 kts 319°
2026-04-29 11:36 25.90616 -97.43066 22 ft 2 kts 340°
2026-04-29 11:36 25.90602 -97.43063 22 ft 1 kts 360°
2026-04-29 11:36 25.90597 -97.43063 22 ft 0 kts
2026-04-29 11:38 25.90621 -97.43060 22 ft 12 kts
2026-04-29 11:38 25.90725 -97.43056 22 ft 16 kts
2026-04-29 11:38 25.90844 -97.43053 22 ft 18 kts
2026-04-29 11:38 25.90978 -97.43047 22 ft 20 kts
2026-04-29 11:39 25.91104 -97.43107 22 ft 19 kts 315°
2026-04-29 11:39 25.91219 -97.43130 22 ft 12 kts 18°
2026-04-29 11:39 25.91203 -97.43052 22 ft 16 kts 135°
2026-04-29 11:39 25.90938 -97.42763 22 ft 103 kts 135°
2026-04-29 11:40 25.90196 -97.41953 23 ft 190 kts 135°
2026-04-29 11:40 25.89181 -97.40768 431 ft 230 kts 130°
2026-04-29 11:40 25.88405 -97.39269 1854 ft 239 kts 113°
2026-04-29 11:40 25.88350 -97.37470 3187 ft 248 kts 79°
2026-04-29 11:41 25.89262 -97.35825 4270 ft 265 kts 45°
2026-04-29 11:41 25.90779 -97.34617 5321 ft 273 kts 32°
2026-04-29 11:41 25.92583 -97.33926 6271 ft 282 kts
2026-04-29 11:41 25.94561 -97.33961 7172 ft 290 kts 353°
2026-04-29 11:42 25.96584 -97.34233 8097 ft 297 kts 352°
2026-04-29 11:42 25.98639 -97.34483 9096 ft 300 kts 354°
2026-04-29 11:42 26.00710 -97.34656 10126 ft 301 kts 355°
2026-04-29 11:42 26.02808 -97.34779 10916 ft 311 kts 356°
2026-04-29 11:43 26.05021 -97.34888 11607 ft 325 kts 356°
2026-04-29 11:43 26.07314 -97.34995 12225 ft 339 kts 356°
2026-04-29 11:43 26.09713 -97.35111 12864 ft 352 kts 356°
2026-04-29 11:43 26.12225 -97.35236 13422 ft 366 kts 356°
2026-04-29 11:44 26.14828 -97.35369 13947 ft 381 kts 356°
2026-04-29 11:44 26.17517 -97.35509 14523 ft 392 kts 355°
2026-04-29 11:44 26.20227 -97.35648 15328 ft 396 kts 355°
2026-04-29 11:44 26.22995 -97.35786 16191 ft 397 kts 355°
2026-04-29 11:45 26.25741 -97.35924 17010 ft 400 kts 355°
2026-04-29 11:45 26.28543 -97.36066 17790 ft 404 kts 354°
2026-04-29 11:45 26.31345 -97.36209 18495 ft 408 kts 354°
2026-04-29 11:45 26.34229 -97.36359 19161 ft 414 kts 354°
2026-04-29 11:46 26.37119 -97.36509 19777 ft 419 kts 354°
2026-04-29 11:46 26.40022 -97.36659 20492 ft 421 kts 354°
2026-04-29 11:46 26.43008 -97.36814 21050 ft 428 kts 354°
2026-04-29 11:46 26.45972 -97.36968 21646 ft 432 kts 353°
2026-04-29 11:47 26.49010 -97.37125 22204 ft 437 kts 354°
2026-04-29 11:47 26.52041 -97.37281 22853 ft 439 kts 353°
2026-04-29 11:47 26.55082 -97.37437 23491 ft 442 kts 353°
2026-04-29 11:47 26.58207 -97.37599 24093 ft 446 kts 353°
2026-04-29 11:48 26.61288 -97.37759 24683 ft 449 kts 353°
2026-04-29 11:48 26.64444 -97.37921 25344 ft 451 kts 353°
2026-04-29 11:48 26.67587 -97.38083 25941 ft 454 kts 353°
2026-04-29 11:48 26.70710 -97.38243 26562 ft 455 kts 353°
2026-04-29 11:49 26.73897 -97.38408 27058 ft 459 kts 353°
2026-04-29 11:49 26.77097 -97.38573 27690 ft 460 kts 353°
2026-04-29 11:49 26.80284 -97.38735 28651 ft 451 kts 353°
2026-04-29 11:49 26.83360 -97.38887 29606 ft 444 kts 352°
2026-04-29 11:50 26.86428 -97.39040 30430 ft 439 kts 352°
2026-04-29 11:50 26.89479 -97.39195 31110 ft 436 kts 352°
2026-04-29 11:50 26.92472 -97.39349 31750 ft 433 kts 352°
2026-04-29 11:50 26.95492 -97.39508 31895 ft 437 kts 352°
2026-04-29 11:51 27.01571 -97.39829 31897 ft 435 kts 352°
2026-04-29 11:51 27.07631 -97.40143 31897 ft 433 kts 352°
2026-04-29 11:52 27.13632 -97.40457 31895 ft 434 kts 352°
2026-04-29 11:52 27.19702 -97.40774 31897 ft 434 kts 352°
2026-04-29 11:53 27.25725 -97.41085 31896 ft 432 kts 352°
2026-04-29 11:53 27.31764 -97.41402 31896 ft 434 kts 352°
2026-04-29 11:54 27.37792 -97.41720 31894 ft 434 kts 352°
2026-04-29 11:54 27.43818 -97.42036 31894 ft 434 kts 352°
2026-04-29 11:55 27.49828 -97.42353 31895 ft 434 kts 352°
2026-04-29 11:55 27.55859 -97.42667 31895 ft 433 kts 352°
2026-04-29 11:56 27.61868 -97.42982 31895 ft 434 kts 352°
2026-04-29 11:56 27.67914 -97.43299 31896 ft 431 kts 352°
2026-04-29 11:57 27.73918 -97.43615 31895 ft 435 kts 352°
2026-04-29 11:57 27.79943 -97.43938 31892 ft 431 kts 351°
2026-04-29 11:58 27.85776 -97.45072 31889 ft 422 kts 336°
2026-04-29 11:58 27.90934 -97.48088 31892 ft 414 kts 322°
2026-04-29 11:59 27.95222 -97.52307 31888 ft 409 kts 310°
2026-04-29 11:59 27.98660 -97.57433 31886 ft 407 kts 304°
2026-04-29 12:00 28.01842 -97.62711 31885 ft 407 kts 304°
2026-04-29 12:00 28.05028 -97.68003 31882 ft 409 kts 303°
2026-04-29 12:01 28.08241 -97.73277 31876 ft 409 kts 304°
2026-04-29 12:01 28.11491 -97.78578 31879 ft 407 kts 304°
2026-04-29 12:02 28.14714 -97.83823 31879 ft 407 kts 304°
2026-04-29 12:02 28.17926 -97.89048 31883 ft 406 kts 304°
2026-04-29 12:03 28.20003 -97.92429 31889 ft 407 kts 304°
2026-04-29 12:03 28.23100 -97.97475 31894 ft 406 kts 303°
2026-04-29 12:04 28.26318 -98.02728 31894 ft 404 kts 304°
2026-04-29 12:04 28.29518 -98.07962 31893 ft 406 kts 304°
2026-04-29 12:05 28.32720 -98.13201 31892 ft 402 kts 304°
2026-04-29 12:05 28.35912 -98.18428 31897 ft 405 kts 304°
2026-04-29 12:06 28.39084 -98.23629 31897 ft 401 kts 304°
2026-04-29 12:06 28.42265 -98.28849 31887 ft 403 kts 304°
2026-04-29 12:07 28.45441 -98.34068 31882 ft 402 kts 304°
2026-04-29 12:07 28.48607 -98.39278 31878 ft 401 kts 304°
2026-04-29 12:08 28.51782 -98.44511 31877 ft 402 kts 303°
2026-04-29 12:08 28.54941 -98.49723 31880 ft 400 kts 303°
2026-04-29 12:09 28.58095 -98.54936 31884 ft 400 kts 304°
2026-04-29 12:09 28.61225 -98.60112 31885 ft 400 kts 304°
2026-04-29 12:10 28.64376 -98.65330 31888 ft 399 kts 303°
2026-04-29 12:10 28.67505 -98.70515 31885 ft 400 kts 303°
2026-04-29 12:11 28.70682 -98.75713 31886 ft 399 kts 305°
2026-04-29 12:11 28.74561 -98.80206 31887 ft 405 kts 321°
2026-04-29 12:12 28.79496 -98.83408 31889 ft 410 kts 329°
2026-04-29 12:12 28.84631 -98.86146 31887 ft 411 kts 330°
2026-04-29 12:13 28.89808 -98.88837 31893 ft 410 kts 330°
2026-04-29 12:13 28.95008 -98.91576 31884 ft 411 kts 330°
2026-04-29 12:14 29.00201 -98.94341 31883 ft 411 kts 329°
2026-04-29 12:14 29.05367 -98.97115 31888 ft 408 kts 329°
2026-04-29 12:15 29.10490 -98.99873 31889 ft 408 kts 329°
2026-04-29 12:15 29.15639 -99.02648 31900 ft 410 kts 329°
2026-04-29 12:16 29.20788 -99.05429 31913 ft 408 kts 329°
2026-04-29 12:16 29.25916 -99.08204 31921 ft 409 kts 329°
2026-04-29 12:17 29.31043 -99.10981 31926 ft 411 kts 329°
2026-04-29 12:17 29.36198 -99.13773 31928 ft 408 kts 328°
2026-04-29 12:18 29.41327 -99.16555 31928 ft 409 kts 328°
2026-04-29 12:18 29.46458 -99.19340 31934 ft 407 kts 328°
2026-04-29 12:19 29.51596 -99.22131 31932 ft 405 kts 329°
2026-04-29 12:19 29.56693 -99.24906 31939 ft 406 kts 328°
2026-04-29 12:20 29.61791 -99.27689 31948 ft 409 kts 328°
2026-04-29 12:20 29.66915 -99.30484 31950 ft 406 kts 328°
2026-04-29 12:21 29.72014 -99.33271 31957 ft 405 kts 328°
2026-04-29 12:21 29.77106 -99.36053 31970 ft 405 kts 328°
2026-04-29 12:22 29.82208 -99.38846 31972 ft 405 kts 328°
2026-04-29 12:22 29.87315 -99.41644 31982 ft 404 kts 328°
2026-04-29 12:23 29.92376 -99.44423 31995 ft 407 kts 327°
2026-04-29 12:23 29.97452 -99.47210 31999 ft 406 kts 328°
2026-04-29 12:24 30.02571 -99.50024 31998 ft 404 kts 328°
2026-04-29 12:24 30.07617 -99.52801 32002 ft 404 kts 327°
2026-04-29 12:25 30.12734 -99.55626 32000 ft 404 kts 327°
2026-04-29 12:26 30.20344 -99.59824 32004 ft 407 kts 327°
2026-04-29 12:26 30.25481 -99.62666 32004 ft 408 kts 327°
2026-04-29 12:27 30.30589 -99.65492 32001 ft 406 kts 327°
2026-04-29 12:27 30.35687 -99.68313 31997 ft 406 kts 327°
2026-04-29 12:28 30.40791 -99.71144 31989 ft 406 kts 327°
2026-04-29 12:28 30.45893 -99.73977 31986 ft 409 kts 326°
2026-04-29 12:29 30.51018 -99.76827 31989 ft 409 kts 326°
2026-04-29 12:29 30.56153 -99.79686 31990 ft 409 kts 327°
2026-04-29 12:30 30.61101 -99.82762 31993 ft 404 kts 320°
2026-04-29 12:30 30.65718 -99.86369 31996 ft 397 kts 318°
2026-04-29 12:31 30.70238 -99.90107 32001 ft 399 kts 317°
2026-04-29 12:31 30.74730 -99.93822 32006 ft 398 kts 317°
2026-04-29 12:32 30.79290 -99.97567 32007 ft 398 kts 318°
2026-04-29 12:32 30.83836 -100.01286 32008 ft 400 kts 317°
2026-04-29 12:33 30.88339 -100.04963 32010 ft 396 kts 317°
2026-04-29 12:33 30.92910 -100.08712 32008 ft 403 kts 317°
2026-04-29 12:34 30.97473 -100.12449 32014 ft 400 kts 317°
2026-04-29 12:34 31.01985 -100.16150 32011 ft 398 kts 317°
2026-04-29 12:35 31.06538 -100.19895 32015 ft 401 kts 317°
2026-04-29 12:35 31.11051 -100.23608 32014 ft 402 kts 317°
2026-04-29 12:36 31.15631 -100.27382 32015 ft 401 kts 317°
2026-04-29 12:36 31.20196 -100.31144 32014 ft 400 kts 317°
2026-04-29 12:37 31.24712 -100.34868 32017 ft 400 kts 317°
2026-04-29 12:37 31.29266 -100.38632 32018 ft 398 kts 317°
2026-04-29 12:38 31.33796 -100.42382 32018 ft 402 kts 317°
2026-04-29 12:38 31.38345 -100.46169 32022 ft 398 kts 316°
2026-04-29 12:39 31.42663 -100.50151 32026 ft 396 kts 313°
2026-04-29 12:39 31.46899 -100.54264 32026 ft 395 kts 313°
2026-04-29 12:40 31.51158 -100.58386 32024 ft 396 kts 314°
2026-04-29 12:40 31.55407 -100.62460 32027 ft 397 kts 313°
2026-04-29 12:41 31.59666 -100.66531 32031 ft 398 kts 313°
2026-04-29 12:41 31.63922 -100.70592 32032 ft 392 kts 313°
2026-04-29 12:42 31.68198 -100.74685 32033 ft 396 kts 313°
2026-04-29 12:42 31.72472 -100.78772 32039 ft 396 kts 313°
2026-04-29 12:43 31.76754 -100.82876 32038 ft 394 kts 313°
2026-04-29 12:43 31.81000 -100.86955 32042 ft 397 kts 313°
2026-04-29 12:44 31.85251 -100.91039 32046 ft 397 kts 313°
2026-04-29 12:44 31.89478 -100.95104 32045 ft 394 kts 313°
2026-04-29 12:45 31.93729 -100.99197 32047 ft 395 kts 312°
2026-04-29 12:45 31.97996 -101.03312 32053 ft 393 kts 312°
2026-04-29 12:46 32.02211 -101.07383 32050 ft 396 kts 312°
2026-04-29 12:46 32.06484 -101.11520 32050 ft 394 kts 312°
2026-04-29 12:47 32.10724 -101.15620 32053 ft 398 kts 311°
2026-04-29 12:47 32.14968 -101.19730 32054 ft 394 kts 312°
2026-04-29 12:48 32.19210 -101.23846 32061 ft 396 kts 312°
2026-04-29 12:48 32.23442 -101.27958 32058 ft 394 kts 312°
2026-04-29 12:49 32.27694 -101.32094 32063 ft 396 kts 311°
2026-04-29 12:49 32.31936 -101.36227 32064 ft 396 kts 312°
2026-04-29 12:50 32.36152 -101.40336 32067 ft 396 kts 311°
2026-04-29 12:50 32.40381 -101.44462 32066 ft 395 kts 311°
2026-04-29 12:51 32.44597 -101.48586 32065 ft 393 kts 312°
2026-04-29 12:51 32.48793 -101.52672 32065 ft 394 kts 312°
2026-04-29 12:52 32.53095 -101.56742 32066 ft 393 kts 312°
2026-04-29 12:52 32.57373 -101.60757 32068 ft 395 kts 312°
2026-04-29 12:53 32.61645 -101.64780 32067 ft 394 kts 313°
2026-04-29 12:53 32.65932 -101.68831 32070 ft 394 kts 312°
2026-04-29 12:54 32.70183 -101.72858 32070 ft 392 kts 312°
2026-04-29 12:54 32.74419 -101.76876 32078 ft 390 kts 312°
2026-04-29 12:55 32.78652 -101.80901 32084 ft 391 kts 312°
2026-04-29 12:55 32.82913 -101.84962 32089 ft 391 kts 312°
2026-04-29 12:56 32.87145 -101.88987 32088 ft 393 kts 311°
2026-04-29 12:56 32.91393 -101.93040 32086 ft 392 kts 311°
2026-04-29 12:57 32.95624 -101.97082 32083 ft 388 kts 312°
2026-04-29 12:57 32.99824 -102.01097 32081 ft 391 kts 311°
2026-04-29 12:58 33.04078 -102.05175 32086 ft 391 kts 311°
2026-04-29 12:58 33.08328 -102.09245 32085 ft 392 kts 311°
2026-04-29 12:59 33.12548 -102.13295 32083 ft 394 kts 311°
2026-04-29 12:59 33.16788 -102.17370 32092 ft 391 kts 311°
2026-04-29 13:00 33.21031 -102.21454 32088 ft 394 kts 311°
2026-04-29 13:00 33.25263 -102.25532 32090 ft 395 kts 311°
2026-04-29 13:01 33.29553 -102.29675 32094 ft 393 kts 311°
2026-04-29 13:01 33.33796 -102.33774 32099 ft 396 kts 311°
2026-04-29 13:02 33.38083 -102.37923 32111 ft 396 kts 311°
2026-04-29 13:02 33.42342 -102.42046 32113 ft 395 kts 311°
2026-04-29 13:03 33.46628 -102.46201 32121 ft 399 kts 311°
2026-04-29 13:03 33.50904 -102.50355 32118 ft 397 kts 311°
2026-04-29 13:04 33.55204 -102.54539 32123 ft 399 kts 311°
2026-04-29 13:04 33.59495 -102.58718 32126 ft 397 kts 311°
2026-04-29 13:05 33.63789 -102.62907 32120 ft 401 kts 311°
2026-04-29 13:05 33.68095 -102.67105 32125 ft 395 kts 311°
2026-04-29 13:06 33.72417 -102.71337 32127 ft 404 kts 310°
2026-04-29 13:06 33.76709 -102.75535 32132 ft 398 kts 310°
2026-04-29 13:07 33.81059 -102.79806 32125 ft 405 kts 310°
2026-04-29 13:07 33.85368 -102.84029 32134 ft 402 kts 310°
2026-04-29 13:08 33.89699 -102.88287 32136 ft 401 kts 310°
2026-04-29 13:08 33.93984 -102.92506 32140 ft 402 kts 310°
2026-04-29 13:09 33.98326 -102.96790 32142 ft 404 kts 311°
2026-04-29 13:09 34.02653 -103.01058 32145 ft 404 kts 310°
2026-04-29 13:10 34.07011 -103.05363 32144 ft 403 kts 310°
2026-04-29 13:10 34.11341 -103.09643 32150 ft 403 kts 310°
2026-04-29 13:10 34.13441 -103.11770 32142 ft 392 kts 308°
2026-04-29 13:11 34.15373 -103.14025 32151 ft 388 kts 303°
2026-04-29 13:11 34.18746 -103.19144 32149 ft 382 kts 297°
2026-04-29 13:12 34.21563 -103.24445 32152 ft 381 kts 294°
2026-04-29 13:12 34.24314 -103.29847 32150 ft 374 kts 294°
2026-04-29 13:13 34.27040 -103.35223 32152 ft 377 kts 295°
2026-04-29 13:13 34.29800 -103.40660 32147 ft 378 kts 294°
2026-04-29 13:14 34.32546 -103.46046 32154 ft 376 kts 295°
2026-04-29 13:14 34.35290 -103.51436 32163 ft 376 kts 294°
2026-04-29 13:15 34.38025 -103.56813 32159 ft 376 kts 295°
2026-04-29 13:15 34.40756 -103.62202 32162 ft 373 kts 294°
2026-04-29 13:16 34.43456 -103.67529 32161 ft 376 kts 294°
2026-04-29 13:16 34.46180 -103.72920 32167 ft 375 kts 293°
2026-04-29 13:17 34.48876 -103.78270 32168 ft 373 kts 294°
2026-04-29 13:17 34.51587 -103.83641 32163 ft 374 kts 293°
2026-04-29 13:18 34.54287 -103.89003 32160 ft 373 kts 293°
2026-04-29 13:18 34.56985 -103.94371 32173 ft 373 kts 294°
2026-04-29 13:19 34.59656 -103.99692 32174 ft 372 kts 293°
2026-04-29 13:19 34.62340 -104.05049 32170 ft 374 kts 293°
2026-04-29 13:20 34.65041 -104.10450 32172 ft 371 kts 294°
2026-04-29 13:20 34.67715 -104.15807 32176 ft 375 kts 293°
2026-04-29 13:21 34.70380 -104.21144 32176 ft 372 kts 293°
2026-04-29 13:21 34.73059 -104.26520 32180 ft 373 kts 293°
2026-04-29 13:22 34.75728 -104.31894 32184 ft 374 kts 294°
2026-04-29 13:22 34.78408 -104.37286 32178 ft 373 kts 293°
2026-04-29 13:23 34.81057 -104.42633 32187 ft 372 kts 294°
2026-04-29 13:23 34.83714 -104.47997 32194 ft 370 kts 294°
2026-04-29 13:24 34.86372 -104.53370 32194 ft 369 kts 293°
2026-04-29 13:24 34.89012 -104.58719 32186 ft 371 kts 293°
2026-04-29 13:25 34.91657 -104.64090 32191 ft 371 kts 292°
2026-04-29 13:25 34.95616 -104.72143 32193 ft 371 kts 293°
2026-04-29 13:26 34.98256 -104.77519 32194 ft 370 kts 292°
2026-04-29 13:26 35.00896 -104.82901 32199 ft 369 kts 292°
2026-04-29 13:27 35.03515 -104.88254 32197 ft 368 kts 292°
2026-04-29 13:27 35.06125 -104.93591 32194 ft 370 kts 292°
2026-04-29 13:28 35.08735 -104.98942 32197 ft 367 kts 292°
2026-04-29 13:28 35.11326 -105.04269 32197 ft 367 kts 291°
2026-04-29 13:29 35.13752 -105.09767 32194 ft 364 kts 290°
2026-04-29 13:29 35.16031 -105.15275 32194 ft 364 kts 289°
2026-04-29 13:30 35.18316 -105.20763 32196 ft 366 kts 289°
2026-04-29 13:30 35.20631 -105.26279 32192 ft 364 kts 290°
2026-04-29 13:31 35.22937 -105.31756 32190 ft 366 kts 289°
2026-04-29 13:31 35.25263 -105.37275 32011 ft 360 kts 290°
2026-04-29 13:32 35.26379 -105.39915 31572 ft 350 kts 290°
2026-04-29 13:32 35.27479 -105.42519 30993 ft 343 kts 289°
2026-04-29 13:32 35.28570 -105.45118 30349 ft 344 kts 289°
2026-04-29 13:32 35.29665 -105.47739 29667 ft 346 kts 290°
2026-04-29 13:33 35.30749 -105.50337 28986 ft 348 kts 289°
2026-04-29 13:33 35.31850 -105.52973 28243 ft 349 kts 290°
2026-04-29 13:33 35.32954 -105.55617 27467 ft 352 kts 290°
2026-04-29 13:33 35.34058 -105.58263 26663 ft 354 kts 290°
2026-04-29 13:34 35.35180 -105.60953 25820 ft 357 kts 290°
2026-04-29 13:34 35.36310 -105.63670 25121 ft 371 kts 290°
2026-04-29 13:34 35.37515 -105.66597 24579 ft 396 kts 290°
2026-04-29 13:34 35.38748 -105.69582 23936 ft 400 kts 290°
2026-04-29 13:35 35.40017 -105.72613 23323 ft 400 kts 291°
2026-04-29 13:35 35.41450 -105.75576 23047 ft 405 kts 296°
2026-04-29 13:35 35.43211 -105.78297 22613 ft 411 kts 306°
2026-04-29 13:35 35.45365 -105.80578 22315 ft 419 kts 315°
2026-04-29 13:36 35.47805 -105.82635 22075 ft 423 kts 319°
2026-04-29 13:36 35.50294 -105.84539 21829 ft 421 kts 320°
2026-04-29 13:36 35.52810 -105.86387 21588 ft 422 kts 321°
2026-04-29 13:36 35.55305 -105.88193 21183 ft 419 kts 321°
2026-04-29 13:37 35.57785 -105.89985 20475 ft 413 kts 322°
2026-04-29 13:37 35.60235 -105.91767 19757 ft 406 kts 322°
2026-04-29 13:37 35.62635 -105.93526 18982 ft 402 kts 322°
2026-04-29 13:37 35.65103 -105.95194 18017 ft 407 kts 330°
2026-04-29 13:38 35.67759 -105.96281 17306 ft 411 kts 339°
2026-04-29 13:38 35.70524 -105.97073 16897 ft 402 kts 342°
2026-04-29 13:38 35.73243 -105.97752 16328 ft 393 kts 343°
2026-04-29 13:38 35.75882 -105.98384 16020 ft 376 kts 343°
2026-04-29 13:39 35.78422 -105.98985 15565 ft 368 kts 343°
2026-04-29 13:39 35.80889 -105.99572 14980 ft 362 kts 344°
2026-04-29 13:39 35.83338 -106.00169 14404 ft 357 kts 344°
2026-04-29 13:39 35.85758 -106.00779 13809 ft 352 kts 344°
2026-04-29 13:40 35.88120 -106.01393 13215 ft 347 kts 344°
2026-04-29 13:40 35.90401 -106.02258 12604 ft 336 kts 329°
2026-04-29 13:40 35.92202 -106.03899 12016 ft 321 kts 308°
2026-04-29 13:40 35.93327 -106.06206 11440 ft 309 kts 285°
2026-04-29 13:41 35.93598 -106.08730 10876 ft 299 kts 263°
2026-04-29 13:41 35.93231 -106.11226 10300 ft 293 kts 254°
2026-04-29 13:41 35.92670 -106.13625 9770 ft 287 kts 249°
2026-04-29 13:41 35.91732 -106.15703 9464 ft 273 kts 230°
2026-04-29 13:42 35.90343 -106.17184 9246 ft 260 kts 208°
2026-04-29 13:42 35.88672 -106.17884 9031 ft 256 kts 188°
2026-04-29 13:42 35.86893 -106.17703 8827 ft 260 kts 167°
2026-04-29 13:42 35.85180 -106.16996 8698 ft 258 kts 162°
2026-04-29 13:43 35.83478 -106.16230 8689 ft 259 kts 163°
2026-04-29 13:43 35.81781 -106.15498 8676 ft 259 kts 164°
2026-04-29 13:43 35.80080 -106.14790 8662 ft 259 kts 163°
2026-04-29 13:43 35.78378 -106.14086 8649 ft 257 kts 164°
2026-04-29 13:44 35.76723 -106.13403 8638 ft 241 kts 164°
2026-04-29 13:44 35.75182 -106.12837 8639 ft 220 kts 168°
2026-04-29 13:44 35.73753 -106.12403 8566 ft 204 kts 170°
2026-04-29 13:44 35.72380 -106.12028 8289 ft 201 kts 170°
2026-04-29 13:45 35.71030 -106.11653 8015 ft 196 kts 169°
2026-04-29 13:45 35.69755 -106.11285 7752 ft 182 kts 168°
2026-04-29 13:45 35.68547 -106.10931 7553 ft 171 kts 168°
2026-04-29 13:45 35.67426 -106.10605 7327 ft 163 kts 168°
2026-04-29 13:46 35.66336 -106.10291 7092 ft 158 kts 167°
2026-04-29 13:46 35.65272 -106.09982 6885 ft 155 kts 167°
2026-04-29 13:46 35.64230 -106.09676 6677 ft 153 kts 167°
2026-04-29 13:46 35.63200 -106.09377 6467 ft 151 kts 166°
2026-04-29 13:47 35.62192 -106.09084 6316 ft 142 kts 167°
2026-04-29 13:47 35.61480 -106.08878 6303 ft 67 kts 166°
2026-04-29 13:47 35.61221 -106.08810 6294 ft 31 kts 167°
2026-04-29 13:47 35.60985 -106.08740 6286 ft 28 kts 167°
2026-04-29 13:48 35.60842 -106.08697 6281 ft 13 kts 165°
2026-04-29 13:48 35.60813 -106.08637 6280 ft 10 kts 38°
2026-04-29 13:48 35.60899 -106.08611 6283 ft 20 kts 10°
2026-04-29 13:48 35.61079 -106.08574 6288 ft 31 kts
2026-04-29 13:49 35.61312 -106.08524 6297 ft 34 kts 10°
2026-04-29 13:49 35.61515 -106.08479 6305 ft 25 kts 11°
2026-04-29 13:49 35.61627 -106.08476 6309 ft 12 kts 305°
2026-04-29 13:49 35.61676 -106.08559 6311 ft 12 kts 326°
2026-04-29 13:50 35.61755 -106.08593 6314 ft 11 kts 346°
2026-04-29 13:50 35.61819 -106.08599 6316 ft 3 kts 30°
2026-04-29 13:50 35.61827 -106.08571 6317 ft 4 kts 101°
2026-04-29 13:50 35.61818 -106.08548 6316 ft 1 kts 122°
2026-04-29 13:51 35.61815 -106.08543 6316 ft 0 kts 124°
2026-04-29 13:51 35.61814 -106.08542 6316 ft 0 kts 124°